Simultaneous Nadir Overpasses (SNOs) Predictions

Prediction of SNOs between AQUA and METOP-A Satellite Orbit:

Table of predicted SNOs for the next 14.0 days since TLE Epoch: 8/16/2014
Index Date (AQUA) Time (AQUA) Lat,Lon (AQUA) SZA (AQUA ) Date (METOP-A) Time (METOP-A) Lat,Lon (METOP-A) SZA (METOP-A ) Distance(km) Time Diff (sec)
1 08/17/2014 15:06:23 -73.77, 127.82 119.52 08/17/2014 15:05:46 -73.78, 127.71 119.49 3.71 37
2 08/17/2014 15:55:52 73.83, -64.70 60.57 08/17/2014 15:56:24 73.85, -64.79 60.58 3.25 32
3 08/20/2014 10:40:38 -73.83,-165.88 118.54 08/20/2014 10:40:09 -73.83,-165.77 118.54 3.33 29
4 08/20/2014 11:30:06 73.85, 1.71 61.50 08/20/2014 11:30:48 73.84, 1.60 61.49 3.26 42
5 08/23/2014 05:25:11 73.10, 94.46 61.61 08/23/2014 05:24:06 73.00, 91.45 61.64 98.13 65
6 08/23/2014 06:14:50 -73.80, -99.38 117.63 08/23/2014 06:14:32 -73.82, -99.38 117.61 1.69 18
7 08/23/2014 07:04:19 73.88, 68.08 62.47 08/23/2014 07:05:10 73.89, 68.11 62.46 1.11 51
8 08/26/2014 00:59:32 73.51, 160.04 63.01 08/26/2014 00:58:21 73.44, 158.83 62.99 39.22 71
9 08/26/2014 01:49:03 -73.80, -32.92 116.68 08/26/2014 01:48:56 -73.81, -33.00 116.67 2.73 7
10 08/26/2014 02:38:32 73.88, 134.53 63.42 08/26/2014 02:39:34 73.87, 134.49 63.41 1.35 62
11 08/28/2014 20:33:50 73.79,-134.10 64.28 08/28/2014 20:32:38 73.78,-133.99 64.28 3.66 72
12 08/28/2014 21:23:17 -73.86, 33.39 115.64 08/28/2014 21:23:19 -73.84, 33.49 115.65 3.55 2




NCC Satellite Simultaneous Nadir Overpasses (SNOs) Prediction Service
